Weather History for KBHK - October, 2011

Change the Weather History Date:

Friday, October 14, 2011

  Actual Average Record
Temperature  
Mean Temperature 42 °F -  
Max Temperature 55 °F 80 °F 73 °F (2010)
Min Temperature 30 °F 30 °F 19 °F (2006)
Degree Days  
Heating Degree Days 22    
Moisture  
Dew Point 26 °F    
Average Humidity 56    
Maximum Humidity 89    
Minimum Humidity 25    
Precipitation  
Precipitation 0.00 in - - ()
Sea Level Pressure  
Sea Level Pressure 30.07 in    
Wind  
Wind Speed 10 mph (WNW)    
Max Wind Speed 18 mph    
Max Gust Speed 26 mph    
Visibility 10 miles    
Events      
Averages and records for this station are not official NWS values.
T = Trace of Precipitation, MM = Missing Value Source: NWS Daily Summary

Daily Weather History Graph

Daily Weather History Graph

Search for Another Location

Airport or City:

Trip Planner

Search our weather history database for the weather conditions in past years. The results will help you decide how hot, cold, wet, or windy it might be!

Date:

Astronomy

Oct. 14, 2011 Rise Set
Actual Time 7:12 AM MDT 6:12 PM MDT
Civil Twilight 6:42 AM MDT 6:42 PM MDT
Nautical Twilight 6:07 AM MDT 7:17 PM MDT
Astronomical Twilight 5:32 AM MDT 7:52 PM MDT
Moon 7:14 PM MDT (10/14) 9:55 AM MDT (10/14)
Length of Visible Light 12h 00m
Length of Day
11h 00m
Waning Gibbous, 94% of the Moon is Illuminated
Oct 14
Waning Gibbous
Oct 19
Last Quarter
Oct 26
New
Nov 2
First Quarter
Nov 10
Full

Hourly Weather History & Observations

Time (MDT) Temp. Windchill Dew Point Humidity Pressure Visibility Wind Dir Wind Speed Gust Speed Precip Events Conditions
12:51 AM 36.0 °F 28.5 °F 30.0 °F 79% 30.04 in 10.0 mi West 10.4 mph - N/A   Clear
1:51 AM 36.0 °F 28.5 °F 28.9 °F 76% 30.05 in 10.0 mi West 10.4 mph - N/A   Clear
2:51 AM 33.1 °F 24.9 °F 28.0 °F 82% 30.06 in 10.0 mi West 10.4 mph - N/A   Clear
3:51 AM 32.0 °F 23.0 °F 28.0 °F 85% 30.08 in 10.0 mi West 11.5 mph - N/A   Clear
4:51 AM 33.1 °F 24.9 °F 28.0 °F 82% 30.08 in 10.0 mi West 10.4 mph - N/A   Clear
5:51 AM 30.9 °F 21.7 °F 28.0 °F 89% 30.09 in 10.0 mi West 11.5 mph - N/A   Clear
6:51 AM 32.0 °F 24.8 °F 28.0 °F 85% 30.11 in 10.0 mi West 8.1 mph - N/A   Clear
7:51 AM 32.0 °F - 28.0 °F 85% 30.13 in 10.0 mi Calm Calm - N/A   Clear
8:51 AM 37.0 °F 30.4 °F 30.0 °F 76% 30.14 in 10.0 mi West 9.2 mph - N/A   Clear
9:51 AM 44.1 °F 38.1 °F 30.9 °F 60% 30.13 in 10.0 mi WNW 11.5 mph - N/A   Clear
10:51 AM 48.9 °F - 27.0 °F 43% 30.13 in 10.0 mi NW 18.4 mph 21.9 mph N/A   Clear
11:51 AM 51.1 °F - 27.0 °F 39% 30.12 in 10.0 mi NW 15.0 mph 26.5 mph N/A   Clear
12:51 PM 53.1 °F - 23.0 °F 31% 30.09 in 10.0 mi NW 18.4 mph - N/A   Clear
1:51 PM 55.0 °F - 21.9 °F 28% 30.07 in 10.0 mi NW 18.4 mph 24.2 mph N/A   Clear
2:51 PM 54.0 °F - 21.9 °F 29% 30.06 in 10.0 mi WNW 17.3 mph 23.0 mph N/A   Clear
3:51 PM 53.1 °F - 18.0 °F 25% 30.06 in 10.0 mi WNW 10.4 mph - N/A   Clear
4:51 PM 54.0 °F - 19.0 °F 25% 30.05 in 10.0 mi NW 9.2 mph - N/A   Mostly Cloudy
5:51 PM 50.0 °F - 19.0 °F 29% 30.06 in 10.0 mi NW 5.8 mph - N/A   Mostly Cloudy
6:51 PM 46.0 °F 44.8 °F 23.0 °F 40% 30.07 in 10.0 mi WNW 3.5 mph - N/A   Partly Cloudy
7:51 PM 45.0 °F - 21.9 °F 40% 30.07 in 10.0 mi Calm Calm - N/A   Mostly Cloudy
8:51 PM 44.1 °F - 26.1 °F 49% 30.05 in 10.0 mi Calm Calm - N/A   Overcast
9:51 PM 43.0 °F - 28.0 °F 56% 30.03 in 10.0 mi Calm Calm - N/A   Overcast
10:51 PM 43.0 °F - 28.0 °F 56% 30.01 in 10.0 mi Calm Calm - N/A   Overcast
11:51 PM 43.0 °F - 30.0 °F 60% 30.00 in 10.0 mi Calm Calm - N/A   Overcast